Weather History for Sarasota, FL

Change the Weather History Date:

Saturday, December 8, 2012

  Actual Average Record
Temperature  
Mean Temperature 71 °F 65 °F  
Max Temperature 79 °F 75 °F 87 °F (1978)
Min Temperature 62 °F 55 °F 30 °F (1937)
Degree Days  
Heating Degree Days 0 3  
Month to date heating degree days 0 21  
Since 1 July heating degree days 41 54  
Cooling Degree Days 6 3  
Month to date cooling degree days 46 24  
Year to date cooling degree days 3770 3324  
Growing Degree Days 20 (Base 50)    
Moisture  
Dew Point 65 °F    
Average Humidity 89    
Maximum Humidity 100    
Minimum Humidity 62    
Precipitation  
Precipitation 0.00 in 0.07 in 3.05 in (1914)
Month to date precipitation 0.00 0.54  
Year to date precipitation 44.04 51.02  
Sea Level Pressure  
Sea Level Pressure 30.00 in    
Wind  
Wind Speed 4 mph (East)    
Max Wind Speed 10 mph    
Max Gust Speed 18 mph    
Visibility 8 miles    
Events Fog    
T = Trace of Precipitation, MM = Missing Value Source: NWS Daily Summary

Daily Weather History Graph

Daily Weather History Graph

Search for Another Location

Airport:

Trip Planner

Search our weather history database for the weather conditions in past years. The results will help you decide how hot, cold, wet, or windy it might be!

Date:

Astronomy

Dec. 08, 2012 Rise Set
Actual Time 7:08 AM EST 5:36 PM EST
Civil Twilight 6:42 AM EST 6:01 PM EST
Nautical Twilight 6:13 AM EST 6:30 PM EST
Astronomical Twilight 5:45 AM EST 6:59 PM EST
Moon 1:54 AM EST (12/8) 1:45 PM EST (12/8)
Length of Visible Light 11h 18m
Length of Day
10h 27m
Waning Crescent, 28% of the Moon is Illuminated
Dec 8
Waning Crescent
Dec 13
New
Dec 20
First Quarter
Dec 28
Full
Jan 4
Last Quarter

Hourly Weather History & Observations

Time (EST) Temp. Dew Point Humidity Pressure Visibility Wind Dir Wind Speed Gust Speed Precip Events Conditions
12:53 AM 64.9 °F 63.0 °F 93% 29.96 in 10.0 mi East 4.6 mph - N/A   Scattered Clouds
1:53 AM 64.9 °F 62.1 °F 90% 29.96 in 10.0 mi Calm Calm - N/A   Scattered Clouds
2:53 AM 63.0 °F 62.1 °F 97% 29.95 in 10.0 mi East 4.6 mph - N/A   Clear
3:53 AM 63.0 °F 62.1 °F 97% 29.96 in 10.0 mi East 3.5 mph - N/A   Clear
4:53 AM 62.1 °F 61.0 °F 96% 29.96 in 7.0 mi East 3.5 mph - N/A   Clear
5:12 AM 62.6 °F 62.6 °F 100% 29.96 in 7.0 mi East 3.5 mph - N/A   Scattered Clouds
5:21 AM 62.6 °F 62.6 °F 100% 29.96 in 6.0 mi East 3.5 mph - N/A   Mostly Cloudy
5:29 AM 62.6 °F 62.6 °F 100% 29.97 in 1.8 mi East 3.5 mph - N/A   Mostly Cloudy
5:50 AM 62.6 °F 62.6 °F 100% 29.97 in 0.5 mi East 3.5 mph - N/A Fog Fog
6:53 AM 63.0 °F 63.0 °F 100% 29.99 in 0.2 mi East 3.5 mph - N/A Fog Fog
7:53 AM 64.0 °F 64.0 °F 100% 30.01 in 0.2 mi East 3.5 mph - N/A Fog Fog
8:53 AM 66.9 °F 66.0 °F 97% 30.03 in 0.5 mi ESE 4.6 mph - N/A Fog Fog
9:10 AM 66.2 °F 66.2 °F 100% 30.03 in 2.0 mi ESE 5.8 mph - N/A   Overcast
9:19 AM 68.0 °F 68.0 °F 100% 30.03 in 5.0 mi ESE 5.8 mph - N/A   Overcast
9:41 AM 69.8 °F 69.8 °F 100% 30.03 in 10.0 mi SE 3.5 mph - N/A   Scattered Clouds
9:53 AM 72.0 °F 68.0 °F 87% 30.04 in 10.0 mi Variable 3.5 mph - N/A   Scattered Clouds
10:53 AM 77.0 °F 66.9 °F 71% 30.03 in 10.0 mi SE 5.8 mph - 0.01 in   Scattered Clouds
11:53 AM 77.0 °F 66.0 °F 69% 30.01 in 10.0 mi WSW 4.6 mph - N/A   Clear
12:53 PM 78.1 °F 64.0 °F 62% 29.99 in 10.0 mi WSW 9.2 mph - N/A   Clear
1:53 PM 78.1 °F 64.9 °F 64% 29.97 in 10.0 mi WSW 9.2 mph - N/A   Clear
2:53 PM 75.9 °F 66.9 °F 74% 29.97 in 10.0 mi West 10.4 mph - N/A   Scattered Clouds
3:53 PM 75.0 °F 66.9 °F 76% 29.97 in 10.0 mi West 8.1 mph - N/A   Clear
4:53 PM 73.9 °F 66.0 °F 76% 29.98 in 10.0 mi WNW 6.9 mph - N/A   Clear
5:53 PM 72.0 °F 64.9 °F 78% 29.98 in 10.0 mi Calm Calm - N/A   Clear
6:53 PM 70.0 °F 66.0 °F 87% 30.00 in 10.0 mi North 3.5 mph - N/A   Clear
7:53 PM 69.1 °F 66.0 °F 90% 30.02 in 10.0 mi Calm Calm - N/A   Clear
8:53 PM 70.0 °F 66.9 °F 90% 30.04 in 10.0 mi NE 3.5 mph - N/A   Overcast
9:53 PM 69.1 °F 66.0 °F 90% 30.04 in 10.0 mi North 3.5 mph - N/A   Overcast
10:53 PM 69.1 °F 66.0 °F 90% 30.04 in 10.0 mi Calm Calm - N/A   Mostly Cloudy
11:53 PM 66.9 °F 64.9 °F 93% 30.04 in 10.0 mi Calm Calm - N/A   Clear